{"data":{"norad_id":69330,"intl_designator":"2026-122B","name":"STARLINK-37772","alt_names":[],"object_type":"PAYLOAD","status":"ACTIVE","operator":null,"country":"US","launch_date":"2026-06-03","launch_site_code":"AFWTR","launch_vehicle":null,"mission":null,"orbit_class":"UNKNOWN","rcs_meters":null,"size_class":null,"mass_kg":null,"dimensions":null,"purposes":["comms"],"wikipedia_slug":null,"has_3d_model":false,"image_url":null,"decayed_at":null,"tle_current":{"epoch":"2026-09-19T23:18:59.004864Z","epoch_age_seconds":74699,"freshness":"FRESH","line1":"1 69330U 26122B   26262.97151626  .00011693  00000+0  36415-3 0  9990","line2":"2 69330  97.2790 291.5261 0001451 100.1659 259.9748 15.33428852 16716","mean_motion":15.33428852,"eccentricity":0.0001451,"inclination_deg":97.279,"raan_deg":291.5261,"arg_perigee_deg":100.1659,"mean_anomaly_deg":259.9748,"bstar":0.00036415,"rev_number":1671,"period_min":93.907193550053,"perigee_km":464.59819502195,"apogee_km":466.58424495139,"semimajor_km":6843.7282199867,"source":"CELESTRAK","updated_at":"2026-09-20T09:00:44.159110Z"}}}